Location: Alpino
(32.5215°N, 116.5815°W)
Time: 05:17:45
(UTC+00:00)

Cosmos 1867 - Pass Details

Date: 13 April 2024
Orbit: 772 x 802 km, 65.0° (Epoch: 25 May)

Event Time Altitude Azimuth Distance (km) Brightness Sun altitude
Rises 12:11:57 0° 318° (NW) 3,312 6.6 -14.3°
Reaches altitude 10° 12:14:44 10° 306° (NW) 2,376 5.7 -13.8°
Maximum altitude 12:19:12 26° 251° (WSW) 1,514 4.4 -12.9°
Drops below altitude 10° 12:23:39 10° 195° (SSW) 2,354 5.7 -12.0°
Sets 12:26:24 0° 183° (S) 3,275 6.5 -11.5°
